Budapest Ferihegy, Hungary

8:11 AM CET on March 24, 2017 (GMT +0100)
Ferihegy

Weather History for LHBP - March, 2014

Change the Weather History Date:

Sunday, March 9, 2014

  Actual Average Record
Temperature  
Mean Temperature 44 °F -  
Max Temperature 55 °F 52 °F 59 °F (2002)
Min Temperature 32 °F 33 °F 15 °F (2006)
Degree Days  
Heating Degree Days 22    
Moisture  
Dew Point 34 °F    
Average Humidity 66    
Maximum Humidity 93    
Minimum Humidity 44    
Precipitation  
Precipitation 0.00 in - - ()
Sea Level Pressure  
Sea Level Pressure 30.46 in    
Wind  
Wind Speed 7 mph ()    
Max Wind Speed 17 mph    
Max Gust Speed -    
Visibility 6.1 miles    
Events      
Averages and records for this station are not official NWS values.
T = Trace of Precipitation, MM = Missing Value Source: Averaged Metar Reports

Daily Weather History Graph

Daily Weather History Graph

Search for Another Location

Airport or City:

Trip Planner

Search our weather history database for the weather conditions in past years. The results will help you decide how hot, cold, wet, or windy it might be!

Date:

Astronomy

Mar. 09, 2014 Rise Set
Actual Time 6:08 AM CET 5:39 PM CET
Civil Twilight 5:37 AM CET 6:10 PM CET
Nautical Twilight 5:02 AM CET 6:45 PM CET
Astronomical Twilight 4:26 AM CET 7:21 PM CET
Moon 10:59 AM CET (3/9) 1:36 AM CET (3/9)
Length of Visible Light 12h 32m
Length of Day
11h 31m
First Quarter, 59% of the Moon is Illuminated
Mar 9
First Quarter
Mar 16
Full
Mar 24
Last Quarter
Mar 30
New
Apr 7
First Quarter

Hourly Weather History & Observations

Time (CET) Temp. Windchill Dew Point Humidity Pressure Visibility Wind Dir Wind Speed Gust Speed Precip Events Conditions
12:00 AM 35.6 °F 32.8 °F 33.8 °F 93% 30.45 in - Variable 3.5 mph - N/A   Clear
12:30 AM 37.4 °F 32.1 °F 33.8 °F 87% 30.45 in - East 6.9 mph - N/A   Clear
1:00 AM 37.4 °F 31.4 °F 33.8 °F 87% 30.45 in - East 8.1 mph - N/A   Clear
1:30 AM 39.2 °F 33.0 °F 33.8 °F 81% 30.45 in - ENE 9.2 mph - N/A   Clear
2:00 AM 37.4 °F - 33.8 °F 87% 30.45 in - Variable 2.3 mph - N/A   Clear
2:30 AM 37.4 °F 34.9 °F 33.8 °F 87% 30.45 in - Variable 3.5 mph - N/A   Clear
3:00 AM 37.4 °F - 33.8 °F 87% 30.45 in - Variable 2.3 mph - N/A   Clear
3:30 AM 37.4 °F - 32.0 °F 81% 30.45 in - Variable 1.2 mph - N/A   Clear
4:00 AM 35.6 °F - 30.2 °F 81% 30.45 in - Variable 2.3 mph - N/A   Clear
4:30 AM 35.6 °F 32.8 °F 32.0 °F 87% 30.48 in - Variable 3.5 mph - N/A   Clear
5:00 AM 32.0 °F - 30.2 °F 93% 30.48 in - Variable 2.3 mph - N/A   Clear
5:30 AM 35.6 °F 31.7 °F 32.0 °F 87% 30.48 in - West 4.6 mph - N/A   Clear
6:00 AM 35.6 °F 29.9 °F 32.0 °F 87% 30.48 in - WNW 6.9 mph - N/A   Clear
6:30 AM 35.6 °F 30.7 °F 32.0 °F 87% 30.48 in - WNW 5.8 mph - N/A   Clear
7:00 AM 35.6 °F 29.9 °F 32.0 °F 87% 30.48 in 5.0 mi WNW 6.9 mph - N/A   Unknown
7:30 AM 39.2 °F 34.2 °F 33.8 °F 81% 30.51 in - NW 6.9 mph - N/A   Clear
8:00 AM 41.0 °F 36.4 °F 35.6 °F 81% 30.51 in - NNW 6.9 mph - N/A   Clear
8:30 AM 44.6 °F 39.7 °F 35.6 °F 71% 30.51 in - North 9.2 mph - N/A   Clear
9:00 AM 46.4 °F 41.1 °F 35.6 °F 66% 30.51 in - NNE 11.5 mph - N/A   Clear
9:30 AM 48.2 °F - 35.6 °F 62% 30.51 in - NE 17.3 mph - N/A   Clear
10:00 AM 48.2 °F - 35.6 °F 62% 30.51 in - NE 16.1 mph - N/A   Clear
10:30 AM 50.0 °F - 33.8 °F 54% 30.51 in - NE 15.0 mph - N/A   Clear
11:00 AM 50.0 °F - 35.6 °F 58% 30.51 in - NE 13.8 mph - N/A   Clear
11:30 AM 51.8 °F - 35.6 °F 54% 30.51 in 6.2 mi ENE 11.5 mph - N/A   Partly Cloudy
12:00 PM 53.6 °F - 35.6 °F 51% 30.48 in 6.2 mi ENE 12.7 mph - N/A   Partly Cloudy
12:30 PM 55.4 °F - 37.4 °F 51% 30.48 in 6.2 mi NE 10.4 mph - N/A   Partly Cloudy
1:00 PM 53.6 °F - 33.8 °F 47% 30.48 in 6.2 mi NE 10.4 mph - N/A   Partly Cloudy
1:30 PM 53.6 °F - 35.6 °F 51% 30.45 in 6.2 mi ENE 10.4 mph - N/A   Partly Cloudy
2:00 PM 55.4 °F - 35.6 °F 47% 30.45 in 6.2 mi East 11.5 mph - N/A   Partly Cloudy
2:30 PM 55.4 °F - 35.6 °F 47% 30.45 in 6.2 mi ENE 8.1 mph - N/A   Partly Cloudy
3:00 PM 55.4 °F - 33.8 °F 44% 30.45 in 6.2 mi North 8.1 mph - N/A   Partly Cloudy
3:30 PM 55.4 °F - 33.8 °F 44% 30.42 in - NE 8.1 mph - N/A   Clear
4:00 PM 55.4 °F - 33.8 °F 44% 30.42 in - ENE 9.2 mph - N/A   Clear
4:30 PM 55.4 °F - 35.6 °F 47% 30.42 in - ENE 9.2 mph - N/A   Clear
5:00 PM 53.6 °F - 33.8 °F 47% 30.42 in - ENE 10.4 mph - N/A   Clear
5:30 PM 50.0 °F - 35.6 °F 58% 30.45 in - East 9.2 mph - N/A   Clear
6:00 PM 50.0 °F - 33.8 °F 54% 30.45 in - ENE 6.9 mph - N/A   Clear
6:30 PM 50.0 °F - 33.8 °F 54% 30.45 in - NE 5.8 mph - N/A   Clear
7:00 PM 46.4 °F 42.4 °F 33.8 °F 62% 30.45 in - NNE 8.1 mph - N/A   Clear
7:30 PM 50.0 °F - 33.8 °F 54% 30.45 in - NNE 10.4 mph - N/A   Clear
8:00 PM 48.2 °F - 33.8 °F 58% 30.45 in - NNE 10.4 mph - N/A   Clear
8:30 PM 46.4 °F 41.1 °F 32.0 °F 57% 30.45 in - NNE 11.5 mph - N/A   Clear
9:00 PM 46.4 °F 41.5 °F 33.8 °F 62% 30.45 in - North 10.4 mph - N/A   Clear
9:30 PM 44.6 °F 39.2 °F 32.0 °F 61% 30.45 in - North 10.4 mph - N/A   Clear
10:00 PM 41.0 °F 35.8 °F 32.0 °F 70% 30.45 in - North 8.1 mph - N/A   Clear
10:30 PM 42.8 °F 38.0 °F 32.0 °F 66% 30.45 in - North 8.1 mph - N/A   Clear
11:00 PM 42.8 °F 37.5 °F 32.0 °F 66% 30.45 in - North 9.2 mph - N/A   Clear
11:30 PM 42.8 °F 37.0 °F 30.2 °F 61% 30.45 in - NNE 10.4 mph - N/A   Clear